Location: Beaver Dam Church
(34.5318°N, 88.9828°W)
Time: 09:23:45
(UTC+00:00)

Cosmos 1244 Rocket - Pass Details

Date: 29 October 2020
Orbit: 954 x 997 km, 82.9° (Epoch: 25 November)

Event Time Altitude Azimuth Distance (km) Brightness Sun altitude
Rises 23:36:56 0° 357° (N) 3,662 7.4 -7.3°
Reaches altitude 10° 23:39:28 10° 0° (N) 2,718 6.7 -7.8°
Maximum altitude 23:45:39 65° 82° (E) 1,069 4.5 -9.0°
Drops below altitude 10° 23:51:52 10° 164° (SSE) 2,732 6.8 -10.3°
Sets 23:54:25 0° 167° (SSE) 3,683 7.5 -10.8°
